GFSNGP_sfc_30mbdewp_000.txt.gz
Dewpoint
13 11 15 15 17 21 18 17 15 16 20 20 28 33 37 42 46 46 45 48 53 55 56 58 58 60 62 64 66 66 65 63 63 62 61 62 62 61 61 60 60 59 59 58
12 11 12 11 15 22 21 21 21 19 21 24 29 37 38 40 46 46 46 46 48 53 55 56 57 59 62 64 65 66 65 64 64 63 63 63 65 64 62 60 60 60 58 58
11 12 12 11 11 14 17 21 20 19 19 24 29 33 34 38 43 44 45 48 48 48 51 53 55 58 61 64 66 67 66 65 65 63 63 63 64 63 62 61 60 59 59 58
15 16 11 13 26 17 18 32 32 30 25 27 28 35 39 40 40 42 45 47 49 49 50 52 54 57 61 64 66 67 67 66 64 63 62 62 61 61 62 60 59 59 58 58
17 14 18 33 37 34 29 34 41 39 39 39 35 38 39 43 42 43 46 49 51 51 51 54 56 58 61 64 66 67 67 66 64 63 62 63 61 61 61 59 59 59 59 59
25 15 16 32 42 45 42 29 42 42 40 39 39 28 40 43 42 43 46 48 50 55 56 57 59 62 62 64 66 66 66 65 65 64 62 60 61 61 60 60 60 60 60 60
34 28 33 42 45 45 28 31 44 44 41 40 39 41 45 47 47 49 51 53 55 57 58 60 62 64 63 63 64 66 65 65 65 65 63 63 62 61 60 61 61 61 59 57
39 34 31 46 45 35 42 44 45 45 45 43 45 46 48 47 46 46 49 52 55 55 58 63 63 63 62 63 64 65 64 64 64 63 63 61 59 59 59 58 56 55 56 53
42 41 46 47 46 46 45 42 43 42 44 48 47 48 49 49 50 53 54 57 61 62 62 62 62 63 62 62 63 63 62 62 62 62 61 60 59 58 57 56 55 54 55 55
43 42 42 42 44 45 46 45 45 46 47 49 50 54 55 56 56 55 57 57 61 61 61 61 61 61 61 63 63 62 61 61 61 60 59 58 59 58 57 56 55 55 57 59
43 41 39 38 42 44 42 42 41 43 45 46 46 46 47 50 59 59 59 61 61 61 61 61 61 61 62 62 61 60 59 59 59 59 60 59 58 57 58 58 57 58 58 57
40 43 43 39 42 43 40 40 41 40 39 41 42 44 46 46 54 60 59 61 61 61 62 61 61 61 61 60 60 59 59 58 58 58 58 57 54 52 48 48 49 52 51 54
41 43 43 41 40 39 36 36 37 38 39 39 41 41 43 47 50 58 60 61 61 60 61 60 60 60 60 60 59 58 57 55 54 53 55 56 54 52 51 47 44 45 48 47
45 44 38 39 37 37 37 37 37 37 38 39 39 39 39 40 45 49 52 57 62 60 59 59 59 59 59 58 56 55 54 53 53 55 56 55 55 53 51 49 48 45 43 43
42 42 42 43 41 40 40 39 39 39 38 38 40 40 40 39 40 45 53 55 60 60 58 58 57 56 57 56 54 53 53 53 55 56 56 55 54 53 51 49 47 46 45 44
42 42 42 42 42 42 41 39 39 41 42 41 42 44 43 44 44 46 51 56 58 59 58 57 56 56 57 57 56 57 57 55 55 55 55 54 53 52 51 49 48 47 46 46
40 41 43 43 44 43 42 42 43 44 45 44 45 46 45 45 46 46 49 54 57 57 58 57 57 58 59 58 57 55 55 55 55 55 54 53 52 52 51 50 49 48 48 47
46 46 47 47 46 46 46 47 46 46 45 47 49 50 49 51 49 49 53 55 56 56 56 57 57 57 57 56 56 54 52 52 54 54 54 54 53 54 54 53 51 49 48 46
48 48 49 48 48 47 48 48 49 49 49 48 49 48 50 53 54 56 55 55 55 55 54 54 55 55 56 55 53 52 51 51 51 51 52 52 52 52 52 51 50 49 47 44
48 49 47 46 46 48 48 48 47 47 47 47 47 46 47 52 53 55 54 54 53 54 54 56 54 54 53 53 52 51 51 51 51 51 51 51 51 51 51 50 49 48 47 44
45 46 45 46 46 46 47 49 48 47 48 48 47 48 48 51 53 54 54 53 54 55 56 56 53 50 49 50 50 48 47 47 48 49 49 48 48 48 48 49 49 48 47 45
44 44 44 44 44 45 47 47 50 49 49 49 50 50 50 49 50 52 53 51 52 54 55 53 52 48 48 46 46 46 45 45 45 45 46 46 45 44 44 43 43 47 46 46
44 44 44 43 44 44 45 47 49 49 49 49 49 48 48 48 49 50 48 51 52 54 53 53 52 48 46 44 43 40 36 35 35 36 39 42 44 43 42 42 42 43 43 45
44 44 44 44 44 43 41 43 48 50 49 50 49 50 47 46 46 50 52 51 52 53 52 52 52 50 48 45 41 37 34 34 33 33 34 40 44 44 43 42 41 40 41 42
43 43 43 41 40 41 42 43 45 46 47 47 48 49 49 47 46 45 47 50 51 52 51 50 50 50 49 45 40 37 35 34 31 31 33 33 34 36 38 38 39 38 37 39
41 41 41 42 40 41 43 44 42 44 45 45 45 45 47 48 47 44 45 46 49 50 50 50 48 48 48 44 41 37 36 35 35 33 31 30 31 32 33 34 35 35 36 37
41 40 37 36 37 38 40 42 42 41 44 45 45 45 46 47 47 47 46 45 45 45 46 47 47 47 46 44 42 40 37 37 36 34 32 30 30 30 30 31 32 33 36 36

GFSNGP_sfc_30mbdewp_006.txt.gz
Dewpoint
20 17 16 14 10 10 8 10 15 18 18 20 22 22 22 21 24 37 49 51 54 55 58 62 62 63 63 63 62 62 63 64 66 69 69 70 70 68 65 63 63 59 60 60
25 22 19 17 16 11 8 9 10 12 15 18 20 22 21 21 22 36 48 50 54 57 59 62 62 64 64 65 64 65 65 66 67 69 70 69 69 67 65 63 60 59 59 58
26 24 23 20 19 16 12 9 10 11 13 14 15 19 22 24 33 37 46 50 53 56 58 61 63 65 64 65 66 66 67 67 68 70 69 69 68 67 64 62 60 59 60 60
29 31 24 20 21 20 15 10 12 15 16 16 19 25 31 34 30 37 46 50 53 54 58 61 61 62 62 64 66 66 68 68 69 69 69 68 68 66 65 61 60 61 63 62
28 26 27 27 27 20 16 14 12 17 20 21 23 34 42 45 44 44 49 52 54 55 58 60 58 60 62 63 65 66 67 68 68 68 68 67 67 66 66 63 61 62 63 62
30 26 26 34 43 45 44 28 18 16 18 21 29 32 21 47 45 45 50 52 54 54 58 58 58 59 61 62 64 65 67 68 68 68 67 67 67 67 66 65 63 62 62 63
29 30 30 44 44 45 36 26 20 25 30 31 34 40 49 49 48 49 52 55 56 56 55 58 58 59 59 61 62 64 66 68 68 68 68 68 68 67 66 65 64 64 63 62
33 34 29 46 44 41 46 48 46 44 43 43 48 51 53 53 54 55 55 54 53 56 59 60 61 61 62 63 65 67 68 68 68 68 67 67 67 67 65 65 64 63 64 63
35 32 48 47 48 50 48 48 48 48 48 49 49 50 51 51 51 52 51 51 54 58 61 63 64 64 64 69 69 68 68 67 68 68 67 66 66 65 64 64 62 62 63 61
43 46 46 48 48 48 48 48 48 48 47 48 48 48 49 51 53 55 56 55 56 57 60 64 66 66 68 67 68 68 68 68 68 67 67 65 65 65 64 62 62 62 61 60
44 47 44 47 48 49 48 49 49 49 49 51 53 54 57 58 57 58 58 58 57 58 62 65 66 66 67 67 67 67 67 67 65 65 65 65 62 58 60 59 58 57 59 58
39 48 49 46 46 46 45 45 47 47 47 49 50 53 58 59 60 61 61 62 62 63 65 66 66 66 67 67 67 66 64 64 63 63 63 63 61 58 48 51 53 55 55 58
48 49 47 46 43 41 41 42 42 42 44 44 44 45 48 51 54 54 57 60 63 63 64 65 65 66 66 67 66 64 62 62 61 60 58 58 59 56 54 49 46 47 48 49
46 45 45 47 46 44 40 39 39 39 39 39 39 40 42 43 45 49 53 55 57 63 63 63 63 64 65 65 65 64 62 60 58 58 57 56 56 56 55 54 52 51 44 45
48 47 43 45 49 48 42 39 39 42 41 41 42 44 44 43 42 43 47 50 53 55 61 63 62 63 63 63 62 60 56 56 56 54 53 53 54 53 53 53 51 52 46 43
49 49 48 48 47 45 45 41 40 41 42 43 45 46 47 48 46 46 46 50 49 51 57 61 62 62 62 58 56 54 55 54 53 52 55 55 55 54 53 52 52 52 49 48
45 44 46 47 48 46 45 45 43 43 44 45 45 46 47 48 49 51 52 53 56 57 58 61 62 62 60 57 55 54 53 56 55 55 54 53 52 50 50 50 50 48 48 49
49 49 49 47 44 44 45 45 45 45 45 45 45 46 47 49 51 53 55 56 57 59 60 62 62 61 60 58 56 54 53 53 51 49 50 51 50 50 50 49 48 47 47 49
46 44 44 44 45 45 45 46 46 46 46 46 46 47 49 51 54 55 54 54 55 57 59 61 60 60 59 59 56 52 51 51 51 52 51 53 52 50 50 49 48 48 49 50
42 41 40 41 43 45 46 47 46 46 48 48 48 48 49 51 53 54 56 56 57 57 58 58 58 58 57 55 54 51 51 50 50 49 49 48 47 48 49 51 50 51 51 50
41 40 40 40 41 44 47 48 47 48 49 50 50 50 50 51 52 52 50 50 57 58 56 57 55 55 53 52 50 49 48 48 48 48 48 47 47 47 46 46 47 47 45 46
42 41 41 41 40 42 46 48 49 49 50 50 50 50 48 48 50 51 53 50 54 56 54 52 51 51 49 49 46 44 43 43 42 43 43 43 43 42 42 42 41 41 42 42
42 43 41 41 44 44 43 44 46 49 50 51 50 48 46 45 45 46 49 51 53 52 50 49 49 48 47 44 41 39 39 39 38 38 38 37 38 38 39 39 39 38 37 38
44 44 46 44 41 41 42 44 44 45 47 48 47 47 42 37 41 43 47 50 51 51 50 50 48 46 44 41 40 39 38 38 38 37 35 33 32 33 35 37 37 37 36 36
46 44 44 43 36 36 38 41 38 36 39 44 43 41 42 42 40 40 44 45 50 51 50 52 50 47 45 43 42 41 41 40 39 37 36 36 36 33 32 34 37 37 37 36
40 38 40 41 40 38 36 36 35 36 35 35 36 37 38 38 39 39 39 42 41 45 41 45 49 50 48 45 43 42 41 40 40 39 38 36 36 35 34 32 32 32 32 32
33 33 34 34 33 34 35 36 36 36 37 37 36 37 38 38 38 38 39 38 38 38 39 39 39 43 41 40 39 40 40 40 40 39 38 37 36 36 35 33 32 32 32 32

GFSNGP_sfc_30mbdewp_009.txt.gz
Dewpoint
20 20 19 14 7 6 5 8 10 14 17 20 24 23 23 23 24 24 26 43 47 49 54 57 58 60 60 57 58 58 62 63 66 71 71 71 71 73 73 73 72 69 67 66
21 18 17 15 15 11 8 6 7 10 13 17 21 24 24 23 24 24 24 30 48 52 53 59 60 63 63 62 61 62 65 65 67 71 72 72 72 73 73 72 71 68 65 63
26 25 23 19 16 15 15 13 9 8 10 13 16 21 24 24 25 26 26 28 45 51 54 58 60 63 64 65 64 64 66 68 69 72 72 73 73 73 72 70 69 66 64 60
25 26 22 22 23 21 17 16 15 13 12 12 18 22 23 22 23 26 30 30 39 49 55 60 60 61 63 65 67 68 69 69 70 72 73 73 73 72 71 70 68 66 63 60
27 27 35 33 34 33 33 24 18 19 16 12 14 15 21 23 23 25 27 30 42 51 56 62 61 64 66 65 67 68 68 69 70 71 71 71 71 70 69 69 68 65 63 62
31 26 24 26 40 40 36 27 24 22 18 13 15 17 20 25 32 39 39 33 48 53 57 62 63 63 64 65 66 67 68 68 70 71 70 69 70 70 69 69 67 65 62 64
28 28 28 38 39 40 29 30 47 44 40 30 15 23 31 35 34 42 42 49 54 55 61 63 63 62 64 64 64 64 66 67 69 69 70 69 69 70 69 68 67 66 64 65
26 25 24 43 40 35 46 47 47 46 44 43 23 23 46 48 47 47 48 53 55 58 61 61 62 64 64 64 66 67 68 68 69 69 68 69 69 69 68 67 66 65 65 65
25 28 47 48 46 48 47 46 46 46 45 43 39 47 50 51 54 55 56 56 57 58 60 60 63 64 65 68 68 68 69 69 69 69 69 69 69 68 67 66 65 64 63 63
40 46 47 47 47 48 49 48 47 48 48 48 48 51 52 53 53 52 53 55 57 58 61 63 64 64 69 69 69 69 69 69 69 68 68 67 67 66 65 64 63 63 63 64
45 47 48 49 50 50 51 50 49 51 55 51 52 53 54 55 54 54 55 57 58 60 62 64 66 67 67 68 69 68 68 68 68 67 66 65 63 62 63 61 60 61 60 62
43 47 47 47 47 48 49 49 50 51 54 56 58 59 58 57 57 57 57 58 60 61 63 65 66 67 67 68 67 66 66 66 65 65 65 64 61 56 51 53 53 55 56 57
50 49 45 45 44 45 43 44 45 46 46 46 46 48 50 52 56 58 58 58 59 61 63 65 66 67 67 68 68 67 63 62 61 61 60 62 59 59 58 52 49 50 50 52
49 48 47 45 46 47 43 39 39 38 40 41 42 42 42 43 45 50 54 59 62 62 64 64 64 65 67 67 66 64 62 60 59 56 55 56 56 55 53 54 53 52 46 49
47 49 48 50 51 49 49 49 39 40 41 42 42 43 43 42 43 44 46 49 54 60 61 61 63 63 64 64 64 63 61 57 57 55 54 54 53 52 52 51 51 52 48 46
49 49 49 47 46 48 50 47 46 42 42 44 45 47 47 47 47 46 46 46 46 51 57 59 61 62 62 62 61 58 56 55 54 53 53 51 51 50 49 49 48 53 50 48
46 47 48 48 48 49 46 46 49 48 43 44 45 46 48 49 50 51 51 50 51 51 53 57 62 62 62 59 56 53 52 53 52 52 51 50 50 49 48 47 46 47 50 50
49 49 50 50 51 48 48 48 49 46 47 45 44 46 48 50 52 52 51 52 54 54 55 61 63 63 61 58 56 51 51 52 51 50 49 50 48 47 46 45 45 46 50 48
47 47 47 44 45 47 48 47 46 46 47 46 46 47 48 50 52 52 52 51 53 54 60 63 61 60 59 58 56 51 51 49 48 48 50 51 49 49 47 48 47 49 51 50
44 44 41 41 44 45 46 45 45 46 47 47 47 47 48 49 50 51 53 55 57 58 59 59 59 59 58 56 53 50 51 49 50 51 51 49 47 48 49 48 48 48 48 49
40 40 39 40 42 45 46 47 47 49 48 49 48 49 48 49 48 52 53 52 56 57 57 57 55 54 53 52 51 50 49 49 49 48 47 47 45 45 46 47 46 47 49 49
39 38 38 39 41 42 45 46 47 49 50 50 48 47 48 47 50 50 51 52 53 55 53 52 52 49 50 48 47 45 45 45 44 44 44 43 43 43 42 44 46 47 46 49
39 39 39 39 40 40 40 41 42 46 48 46 46 45 43 44 46 51 50 50 50 51 52 49 48 46 45 46 43 41 40 41 40 39 39 38 38 38 39 39 39 39 39 38
41 42 42 40 40 40 39 40 40 41 43 45 43 43 41 39 42 42 48 48 49 49 50 48 46 45 44 43 40 39 38 39 38 38 36 35 34 32 33 35 36 37 38 37
41 41 42 39 36 35 36 38 38 36 40 44 43 42 41 40 38 38 38 44 44 46 51 48 47 46 43 39 40 41 41 40 38 38 36 36 35 35 34 33 32 35 36 36
37 36 37 37 36 35 34 35 34 35 35 36 35 36 36 36 38 37 42 40 38 41 37 48 48 47 44 41 40 40 42 41 40 39 37 36 35 35 35 34 33 32 32 34
34 32 33 32 32 31 31 32 32 33 33 35 34 34 35 36 37 37 38 37 37 37 37 37 41 46 41 40 39 40 40 39 39 38 37 37 37 36 35 35 34 33 32 32

GFSNGP_sfc_30mbdewp_015.txt.gz
Dewpoint
17 17 16 13 16 13 11 9 9 10 8 11 15 29 32 35 37 33 34 38 44 50 51 56 59 61 62 64 66 71 72 73 72 73 73 73 73 74 72 72 72 72 69 69
19 20 14 13 16 18 12 11 12 13 13 18 21 25 35 38 35 29 28 41 49 52 52 54 56 60 61 63 65 67 70 71 71 72 72 73 73 73 74 73 73 72 71 70
17 21 21 19 14 16 20 17 17 14 14 16 15 17 25 32 36 32 32 42 46 50 54 54 56 59 61 63 64 66 68 70 70 70 72 72 73 73 74 74 73 74 72 71
19 23 19 24 23 23 21 23 20 18 18 21 19 21 28 29 22 25 34 40 46 48 59 57 58 58 60 62 64 64 65 68 69 70 71 72 72 73 72 74 73 74 73 72
21 20 21 22 23 23 22 22 22 30 31 23 20 18 20 27 27 19 22 33 30 51 53 62 59 59 59 60 63 63 64 66 68 69 70 72 72 72 73 74 74 74 72 70
20 18 17 23 26 37 35 30 44 43 43 42 37 28 23 43 42 31 31 32 27 34 50 57 62 61 60 60 62 61 62 65 67 68 70 72 72 73 74 74 72 72 69 68
23 16 20 29 32 36 29 39 46 45 44 44 42 44 45 45 44 49 46 36 34 41 52 57 63 63 61 61 60 64 62 72 69 71 73 73 74 73 72 71 71 69 68 66
30 27 26 45 40 35 44 47 44 43 43 42 44 44 45 44 42 45 46 55 42 49 52 62 65 66 66 64 66 68 72 73 75 75 75 74 73 71 70 70 69 67 66 65
32 37 49 47 44 48 47 47 49 55 58 52 51 53 47 50 50 47 60 65 68 66 68 69 68 68 69 72 72 72 73 74 73 73 72 71 70 70 69 69 68 67 65 65
43 37 40 43 46 53 61 59 60 61 60 60 59 61 62 60 60 63 65 66 67 69 70 71 71 72 72 72 72 72 72 72 71 71 70 70 70 69 68 67 67 66 65 65
47 48 51 53 58 57 59 57 57 57 58 58 59 59 60 62 64 65 66 66 68 69 70 71 71 72 72 72 72 71 70 69 69 69 67 62 58 61 64 59 63 64 65 65
46 49 50 49 52 57 53 54 54 53 53 55 57 57 57 58 59 60 60 68 70 70 70 71 72 72 71 71 70 69 68 68 67 64 62 60 59 56 50 52 52 57 63 63
49 52 51 50 48 46 45 47 50 51 51 53 56 56 56 56 55 57 58 64 68 68 69 69 69 69 70 70 69 68 67 67 66 64 63 61 60 58 56 51 50 52 54 55
52 51 49 50 49 49 47 45 44 46 49 53 54 55 55 57 57 57 57 59 65 68 67 68 68 69 70 69 68 67 67 66 65 64 63 62 61 59 56 55 54 53 48 50
51 50 51 51 51 50 49 47 46 46 47 48 51 52 52 52 54 56 57 63 65 67 67 67 67 67 68 69 69 67 66 66 65 65 64 63 62 60 57 56 54 52 49 47
50 50 48 48 49 49 49 50 48 45 45 45 49 54 55 55 55 55 55 60 62 63 66 67 67 67 67 66 64 65 63 64 64 63 65 64 63 61 60 58 54 51 51 50
47 46 48 48 49 48 49 52 52 48 45 43 49 53 53 55 55 56 56 62 62 63 63 64 66 65 65 65 63 63 60 58 56 58 62 60 56 55 58 57 53 52 52 51
49 49 48 48 47 46 48 51 53 52 44 42 50 52 53 50 47 55 57 59 58 59 62 62 63 63 61 61 61 59 57 56 54 56 55 55 53 52 55 56 54 53 52 50
50 48 46 43 44 45 47 50 50 52 51 45 51 52 52 53 54 53 53 57 54 56 61 60 61 61 61 59 57 55 55 54 54 54 52 52 53 53 53 55 54 54 54 49
45 47 48 48 48 49 49 50 50 51 51 51 52 52 51 53 54 55 56 56 57 59 61 60 60 60 60 59 54 55 55 55 55 53 54 54 53 53 52 52 52 52 51 49
47 48 47 48 48 49 51 51 50 50 50 49 48 50 52 54 54 54 54 54 55 54 54 56 53 55 56 54 53 53 54 54 55 54 53 52 52 53 52 52 52 52 51 50
44 43 44 47 48 47 48 50 50 49 50 49 49 50 50 52 52 53 54 51 52 51 49 48 47 46 46 49 49 50 51 52 53 52 50 50 49 48 45 52 52 53 52 52
44 47 45 44 44 45 48 46 45 48 46 47 44 47 49 50 51 48 46 50 51 47 47 43 42 40 42 45 46 47 46 45 44 43 43 41 41 39 39 40 41 44 48 49
44 44 45 40 44 44 42 41 43 48 48 47 46 46 44 47 49 48 47 47 48 50 47 44 40 41 42 43 42 43 44 42 40 40 39 39 37 37 35 34 35 38 41 41
44 40 38 35 34 35 34 37 37 37 42 40 40 38 41 42 42 43 44 42 41 47 50 46 43 42 43 45 43 40 43 41 41 39 41 39 38 37 37 36 35 36 36 35
35 36 35 33 31 32 33 32 32 36 35 34 35 36 39 42 40 39 41 42 41 42 46 50 48 47 45 46 47 48 48 49 49 46 44 44 43 41 37 37 38 34 35 35
32 32 31 30 29 30 31 29 30 33 33 35 35 39 40 38 37 37 36 37 39 39 43 44 45 46 47 46 46 47 48 50 50 50 50 49 49 49 48 48 49 49 46 45

GFSNGP_sfc_30mbdewp_021.txt.gz
Dewpoint
25 25 23 16 14 14 14 14 12 12 8 9 12 15 15 17 33 39 45 46 46 46 47 50 53 58 60 63 66 66 67 68 69 69 70 70 70 69 69 70 70 69 68 68
26 22 20 18 15 15 13 13 12 12 10 11 11 13 12 12 14 28 36 45 45 45 47 49 52 57 59 63 65 67 67 68 69 70 70 71 71 71 70 70 70 69 69 68
24 24 23 16 16 15 14 14 13 11 13 11 11 11 11 12 18 26 36 40 41 43 43 46 50 56 58 62 64 68 68 68 69 69 70 71 71 71 71 70 70 70 69 69
26 25 16 17 17 16 15 16 16 14 14 14 13 13 15 17 18 26 33 35 37 38 42 47 52 56 58 61 64 67 68 69 70 70 70 71 72 72 72 71 71 71 70 69
24 24 24 21 23 16 16 16 20 16 16 16 17 19 17 23 24 22 24 29 36 41 41 47 51 56 58 60 63 67 68 69 70 71 71 71 71 72 72 72 71 71 71 70
25 22 19 22 45 48 23 15 26 22 19 19 23 17 16 20 27 28 28 32 38 42 49 50 53 56 59 60 63 66 68 69 70 71 71 71 71 71 72 72 72 72 71 71
25 24 24 43 51 50 27 18 44 37 27 27 24 24 26 32 42 41 39 34 32 44 52 50 54 58 59 60 62 64 67 69 70 71 71 71 72 72 72 72 73 72 72 72
28 26 24 51 51 47 50 54 47 44 44 42 46 52 53 55 53 60 63 66 65 45 38 54 55 57 59 60 61 63 65 67 69 70 71 71 72 72 72 72 72 72 71 70
33 30 50 52 52 56 57 56 57 57 57 58 61 62 62 61 61 58 60 65 68 68 65 56 49 57 57 59 61 62 64 65 67 70 71 71 72 72 72 72 72 69 69 68
37 45 50 52 53 55 55 56 57 58 59 60 59 57 56 57 57 55 54 55 62 64 64 62 64 66 62 58 59 61 63 64 66 69 70 71 72 72 72 72 70 69 68 66
42 48 51 51 52 53 52 54 54 55 56 55 54 54 54 55 55 54 54 53 52 59 64 62 57 59 59 63 64 60 62 64 65 68 69 71 65 69 71 68 69 68 67 66
39 48 48 49 51 50 52 51 52 53 54 55 55 55 57 57 59 59 60 59 57 54 54 55 56 57 58 59 69 65 63 68 69 70 64 62 61 59 55 60 66 66 66 65
49 51 49 50 51 50 50 51 52 52 53 53 54 55 56 58 59 61 62 61 60 58 58 60 60 58 58 58 68 71 70 68 65 64 64 65 65 63 61 61 55 59 64 63
52 50 49 50 48 49 49 51 52 53 54 54 55 56 57 59 60 61 62 63 63 61 60 64 62 64 65 59 63 65 64 64 65 65 64 63 62 60 59 58 59 58 53 59
51 50 51 51 52 50 48 48 48 50 50 51 53 55 56 57 59 60 61 62 63 63 63 63 62 63 63 60 61 64 65 64 63 62 62 60 60 60 60 60 59 55 54 53
50 50 50 50 50 50 48 47 47 48 50 49 52 52 53 53 52 54 58 61 60 60 60 60 61 62 64 61 59 55 56 63 63 62 60 60 58 58 58 58 57 56 57 56
48 47 48 48 49 49 50 50 50 49 50 51 52 51 49 48 49 51 53 55 58 59 60 60 59 59 60 64 63 59 61 63 62 62 61 59 58 57 56 56 55 55 55 52
49 49 49 49 49 49 49 50 50 50 50 52 54 54 54 53 52 52 54 55 54 52 54 57 57 57 57 60 61 62 63 64 63 63 62 61 60 58 56 55 54 54 52 48
50 49 50 51 51 51 51 51 51 51 52 51 51 53 55 55 55 54 55 55 55 55 55 53 55 52 55 58 58 57 59 61 62 63 62 61 61 60 58 56 54 53 51 49
52 52 52 49 50 51 50 50 50 50 51 53 54 53 53 54 53 52 52 49 50 50 51 53 53 53 52 53 56 56 56 57 58 59 60 60 60 60 59 57 55 54 52 51
48 48 49 48 47 48 49 49 48 48 50 53 53 53 52 52 52 52 49 46 47 46 44 47 48 47 48 51 55 55 55 55 55 55 56 56 56 56 56 56 56 55 53 52
34 35 36 37 39 41 42 42 40 41 44 48 49 48 47 46 46 49 50 48 46 44 46 46 47 47 46 50 55 55 55 55 54 54 53 53 54 54 54 55 55 54 53 52
31 31 31 32 34 34 35 36 38 40 40 40 40 42 44 44 45 45 44 47 47 46 47 48 49 48 47 46 46 50 53 53 53 52 52 51 52 52 53 52 53 53 52 51
29 30 31 31 32 32 34 36 38 40 40 37 36 35 35 37 38 40 46 48 47 47 48 48 49 49 49 49 49 48 47 45 43 44 46 45 42 44 50 51 51 52 53 53
28 30 31 32 32 33 35 37 38 39 38 38 38 35 35 35 35 39 43 44 45 47 46 46 46 47 48 49 49 49 49 48 48 48 48 43 41 41 39 38 40 41 41 42
30 31 31 32 33 34 35 37 37 38 37 37 38 38 38 37 36 36 35 35 34 35 36 38 41 43 45 46 47 49 48 48 48 47 46 46 46 46 45 44 44 43 43 43
26 28 28 29 30 35 36 37 36 36 36 35 34 35 36 36 36 35 35 34 34 33 33 33 33 34 36 38 43 46 47 47 47 47 47 46 46 44 43 42 42 41 40 39

GFSNGP_sfc_30mbdewp_024.txt.gz
Dewpoint
27 27 26 24 22 20 16 15 13 14 15 16 15 14 13 14 27 32 37 44 47 47 47 49 52 55 57 60 62 64 64 65 66 67 68 68 69 69 69 69 69 69 69 69
26 25 25 24 24 22 20 16 16 15 14 15 15 15 16 17 19 20 30 39 46 47 48 50 52 56 58 61 63 64 65 65 66 67 68 68 69 69 70 70 70 69 69 69
21 26 25 19 18 19 18 16 15 14 16 15 13 14 14 14 16 17 19 23 36 47 48 49 52 56 57 60 63 64 65 66 67 68 68 68 69 69 69 69 70 70 69 69
21 24 17 20 24 24 20 16 17 16 15 16 15 15 16 17 15 16 18 24 34 43 47 48 50 51 55 59 63 65 65 66 67 68 69 69 70 69 69 69 69 69 69 69
17 21 21 20 33 42 43 33 20 17 17 17 16 17 18 21 20 17 19 25 33 39 44 47 47 50 55 59 63 65 66 66 67 69 69 69 70 70 70 70 70 70 70 69
25 20 16 23 44 49 50 36 32 24 18 17 20 16 17 20 23 23 25 27 30 36 41 43 47 52 56 58 62 64 66 67 68 69 69 69 70 70 71 71 70 71 70 70
25 25 24 27 49 52 31 33 54 55 51 20 19 19 30 37 43 49 46 41 35 40 44 49 51 55 57 58 61 63 65 68 69 69 70 69 70 71 71 72 71 71 71 71
26 26 22 47 46 44 50 55 54 56 56 32 38 51 57 59 61 63 65 66 63 48 49 51 57 57 58 59 61 63 66 67 69 69 70 70 70 71 71 72 71 71 70 70
26 25 35 52 52 54 55 53 54 55 58 58 58 59 59 57 57 58 62 65 66 64 63 63 63 61 58 63 61 62 64 67 69 70 71 71 71 71 71 72 71 71 70 70
35 35 32 50 53 53 53 53 55 56 56 57 57 56 54 54 54 53 53 55 62 61 59 57 61 63 63 65 67 62 62 65 67 69 70 71 72 71 71 71 71 70 70 70
34 37 44 51 50 51 53 54 55 55 55 55 55 56 56 57 58 59 59 57 56 57 58 58 58 57 57 58 67 68 63 63 65 68 69 71 67 69 71 72 71 71 70 69
36 38 44 49 50 52 52 52 54 55 55 56 57 57 58 58 59 60 59 59 58 60 59 59 60 60 60 59 61 68 68 63 64 67 69 64 62 60 60 64 66 64 64 63
41 45 49 50 51 52 52 53 54 54 55 56 57 58 59 59 59 60 61 62 60 58 61 60 60 60 61 62 60 66 68 67 66 68 65 63 65 64 61 58 60 59 59 59
46 50 50 51 51 52 52 52 54 55 55 56 58 59 59 60 60 60 60 61 62 62 62 62 62 62 63 63 61 64 69 67 67 66 65 67 65 64 62 60 58 58 57 57
50 52 51 52 51 51 51 51 51 52 53 54 55 55 57 58 58 59 61 61 60 59 59 59 59 60 62 63 61 62 62 65 65 66 66 62 61 60 60 60 59 57 52 51
51 52 51 50 51 51 51 51 51 51 51 51 50 50 52 55 55 56 58 59 57 57 57 57 57 59 62 61 58 59 62 60 61 62 62 61 60 60 60 60 58 56 58 53
48 48 49 48 49 50 51 51 51 52 53 53 53 52 51 52 53 53 53 53 54 53 54 54 55 59 62 60 59 58 60 62 62 61 60 60 60 59 60 59 58 58 60 55
50 51 51 51 50 50 50 50 51 52 52 53 54 54 54 54 54 54 55 55 53 52 53 54 54 56 59 61 62 61 61 62 62 60 60 60 59 60 60 59 59 58 56 52
52 52 51 52 53 51 51 51 51 52 52 53 53 53 53 51 50 49 48 47 48 48 49 52 52 53 55 58 59 61 62 63 62 61 61 59 58 58 58 58 57 55 54 54
49 50 50 49 49 49 50 51 52 53 54 53 52 52 51 51 51 48 46 45 46 46 47 49 49 49 53 55 56 58 59 60 61 61 60 61 60 58 57 56 55 54 53 54
43 42 41 41 39 42 42 46 49 49 49 49 48 48 48 50 48 47 44 44 46 48 48 49 49 50 53 55 56 56 56 57 59 60 60 59 59 59 58 57 56 56 54 53
37 35 36 41 39 38 40 40 40 39 39 40 41 42 43 44 46 47 48 47 48 48 49 49 50 50 49 50 53 55 56 56 55 55 56 58 58 57 57 57 57 56 55 54
35 35 36 36 37 39 39 39 38 37 36 36 36 37 42 43 45 46 45 47 47 47 47 48 49 49 49 49 48 48 48 49 50 54 54 53 54 55 55 55 56 55 54 54
33 33 35 36 37 38 37 37 37 38 38 38 38 37 37 39 37 38 38 38 41 41 41 44 46 48 49 48 48 47 47 47 47 46 44 43 42 42 45 50 52 54 54 53
32 33 34 35 36 36 37 37 37 37 37 37 37 36 36 36 35 35 35 35 35 35 35 37 39 42 45 47 48 48 48 47 46 45 45 45 44 44 44 43 43 43 43 43
27 29 31 33 36 37 37 36 35 35 34 34 34 35 35 34 34 34 33 34 33 32 32 32 35 39 41 43 46 47 47 48 48 47 45 44 43 42 41 41 40 40 41 41
24 25 27 31 32 36 36 34 32 31 32 32 31 32 31 31 30 29 29 30 31 32 32 31 31 31 34 40 41 42 44 46 47 48 47 46 45 43 42 41 40 40 39 39

GFSNGP_sfc_30mbdewp_030.txt.gz
Dewpoint
27 26 25 23 20 20 19 19 17 16 16 18 19 20 22 24 25 27 30 33 38 46 48 51 53 58 62 60 60 61 64 64 67 70 71 71 72 72 72 73 73 73 73 73
25 24 23 22 24 23 22 22 21 20 19 21 22 25 25 26 27 25 25 25 25 38 46 51 55 58 59 63 62 62 64 65 67 70 71 72 72 72 73 73 73 73 72 73
21 23 22 22 23 23 23 24 23 22 23 24 23 23 25 25 25 23 27 29 31 35 40 48 53 56 58 62 62 63 65 67 68 70 71 72 72 73 73 73 73 73 73 72
19 21 18 21 23 23 23 23 24 23 24 24 24 25 26 26 25 24 24 27 29 29 31 42 49 45 55 58 64 64 67 67 69 70 71 72 73 73 73 73 73 73 73 73
18 17 18 20 20 21 23 23 24 24 25 24 24 23 24 24 24 26 29 30 31 31 34 36 41 45 49 57 60 64 67 68 69 70 70 71 72 72 73 72 72 72 72 73
15 17 15 18 19 22 30 26 30 35 37 37 41 27 23 24 24 25 29 30 32 32 33 37 46 48 52 56 59 64 66 67 68 70 70 70 72 72 72 72 71 70 71 72
14 13 16 18 27 40 26 38 44 44 45 47 47 46 45 46 46 44 42 39 39 41 41 43 51 52 54 56 58 63 64 65 68 70 71 71 72 73 73 72 70 72 71 71
13 11 9 14 17 19 35 43 44 46 46 47 50 51 55 56 55 50 46 51 54 51 45 46 54 54 55 61 61 64 65 65 68 70 69 69 72 73 72 72 72 71 71 71
14 12 17 21 17 25 34 35 38 46 50 51 52 53 56 57 56 47 51 55 59 47 51 59 62 60 59 62 63 63 65 67 68 70 70 71 72 73 71 72 69 70 68 70
20 19 22 25 27 29 29 31 36 38 46 51 53 55 58 57 55 57 60 63 62 59 58 62 66 65 66 67 66 66 66 67 68 69 70 70 69 70 69 68 70 68 68 68
27 28 25 22 22 24 30 30 30 33 43 50 54 57 58 56 58 60 62 61 61 62 63 64 65 66 67 69 70 67 67 68 68 68 69 70 71 68 68 69 68 69 68 68
24 26 28 28 29 29 27 34 34 40 43 50 58 59 59 59 60 60 61 61 61 61 61 62 62 63 64 65 64 65 65 65 63 63 65 67 67 69 65 66 66 67 68 67
31 31 31 32 35 36 40 41 41 44 46 55 59 59 59 60 60 61 61 62 63 63 64 64 64 64 64 65 66 66 64 64 62 63 60 60 63 65 65 68 63 64 65 67
37 36 36 37 36 40 40 44 46 50 54 59 60 60 60 60 61 61 61 61 62 62 63 63 63 62 63 65 65 65 64 62 63 63 63 64 67 68 68 70 69 69 66 60
39 40 38 38 41 43 45 47 51 55 58 59 60 59 59 59 59 58 58 59 61 62 62 63 63 63 64 64 62 60 58 61 60 60 62 64 63 62 63 63 62 60 56 55
39 39 40 40 40 43 49 50 53 56 58 59 59 58 56 56 55 54 55 56 55 56 58 61 63 64 62 62 60 60 60 60 60 59 57 59 61 61 60 59 58 58 58 56
40 41 41 41 43 47 47 53 55 56 57 57 57 56 56 54 53 53 52 52 53 54 54 56 59 62 64 64 61 60 59 60 60 58 59 59 58 57 59 59 60 60 56 55
49 47 48 47 51 52 52 56 55 56 55 55 55 54 52 52 52 51 52 52 53 53 54 56 56 59 60 61 62 61 61 60 59 57 58 58 59 59 58 58 59 59 58 55
47 47 47 47 48 49 49 50 52 52 51 51 51 50 50 50 50 51 50 51 51 51 52 54 55 55 57 57 58 59 60 61 61 61 60 59 58 59 60 59 59 58 58 57
46 46 46 46 46 47 48 49 49 50 51 51 49 48 47 48 48 47 47 47 49 49 51 51 53 53 54 55 56 57 59 60 59 60 60 60 60 60 59 58 59 59 59 60
45 45 45 45 45 46 47 47 47 48 48 48 49 49 47 44 43 43 44 44 46 48 48 49 50 50 51 51 52 52 54 56 59 59 60 59 59 59 58 59 58 57 57 58
39 41 42 43 43 44 45 46 45 45 46 45 44 43 43 43 42 41 41 42 44 46 47 48 49 50 49 49 47 47 48 49 51 53 56 57 57 58 58 58 57 57 57 57
39 38 39 40 41 41 42 41 41 41 41 40 41 41 39 38 37 37 37 39 39 41 42 43 46 49 49 48 47 46 45 43 45 47 50 51 50 51 52 51 52 53 54 55
37 38 36 36 37 38 39 39 39 38 38 37 36 36 37 35 35 35 34 34 36 37 38 40 40 42 44 47 48 47 47 46 44 42 42 44 46 47 48 48 49 50 50 50
36 35 36 34 33 33 35 35 34 34 33 33 32 31 31 31 31 31 31 31 31 33 33 36 38 38 37 38 41 45 48 48 46 44 44 42 41 41 42 42 43 45 46 47
26 30 33 35 33 32 32 31 30 30 29 29 28 27 26 26 26 26 26 26 26 27 27 29 31 33 34 35 35 36 36 39 45 46 46 46 44 43 43 43 42 42 42 42
21 24 27 30 31 30 29 29 28 28 27 27 25 25 25 24 24 24 24 23 22 23 23 23 24 25 30 33 34 34 35 34 34 36 38 43 46 46 45 44 43 43 43 43

GFSNGP_sfc_30mbdewp_033.txt.gz
Dewpoint
25 23 23 18 17 16 15 16 14 14 17 18 21 22 22 25 28 30 33 35 36 40 43 46 53 58 61 60 61 62 64 65 68 71 72 72 72 73 74 74 74 74 74 74
26 25 27 23 22 18 16 17 17 16 16 19 21 21 23 24 26 27 28 28 29 31 41 46 49 57 59 62 61 62 65 65 68 70 72 73 73 74 74 74 74 74 74 74
27 27 26 24 23 22 20 18 18 18 20 21 22 25 26 27 28 28 28 26 27 29 32 44 48 53 56 62 64 62 65 67 67 70 72 73 74 74 74 74 74 74 74 74
23 26 23 25 25 23 23 23 23 24 25 26 27 27 28 28 28 28 28 28 27 27 30 35 37 44 54 56 65 65 65 66 68 69 71 73 74 74 74 75 74 74 74 74
21 22 22 22 23 24 23 23 25 25 25 25 25 26 27 28 28 28 29 28 28 28 28 33 33 38 45 55 60 66 67 67 68 70 71 73 73 74 74 74 74 74 74 75
22 20 20 22 23 23 27 23 26 25 25 25 28 29 30 42 43 38 31 29 30 30 31 32 36 37 38 44 54 64 66 68 69 71 72 72 73 74 75 75 74 73 74 74
18 20 21 23 27 29 24 38 35 31 33 36 37 43 49 49 49 52 52 50 47 45 42 42 42 41 49 49 50 59 65 68 70 71 72 73 73 74 75 75 73 74 73 73
16 16 17 21 20 25 34 41 42 45 47 48 48 49 49 49 52 53 54 53 50 47 51 55 48 49 57 58 59 63 64 67 69 72 71 71 73 74 75 75 74 73 74 73
14 14 21 22 23 23 25 32 34 35 38 40 42 47 49 51 54 56 55 52 45 47 55 51 53 54 58 62 66 65 68 69 70 72 73 71 73 74 73 74 72 72 71 72
17 19 20 21 21 22 24 28 31 31 34 33 34 43 49 53 55 56 55 56 59 59 57 55 62 64 63 64 66 67 69 70 71 72 72 72 70 71 71 69 70 70 68 69
20 20 22 24 25 24 25 27 27 28 32 33 33 38 48 55 58 57 59 63 62 63 63 65 68 69 69 69 68 67 67 67 68 68 69 71 71 67 68 69 67 67 68 67
24 26 25 27 28 29 28 26 27 29 30 39 40 44 55 57 60 62 61 62 63 63 64 64 65 65 66 67 69 69 68 68 66 65 66 68 68 70 69 68 67 66 64 65
33 31 30 30 32 32 31 30 31 34 37 40 42 45 58 59 62 63 63 62 63 64 64 65 65 64 65 67 66 66 65 66 62 61 60 60 63 64 64 67 64 65 63 63
38 37 37 36 33 33 34 33 35 35 37 39 44 51 58 60 61 62 62 62 62 63 63 63 63 64 65 67 67 66 63 62 61 61 61 62 63 64 65 64 65 67 62 58
39 38 37 38 39 39 37 38 37 38 38 40 45 56 60 61 61 61 61 63 63 63 63 62 63 64 64 62 61 61 60 60 59 60 62 62 63 63 64 64 64 62 61 60
42 39 38 38 38 39 38 40 43 43 39 45 53 59 60 61 60 59 60 58 58 60 61 62 64 63 62 63 61 60 60 59 60 58 57 57 58 60 60 60 60 60 59 59
39 39 39 39 39 38 40 42 43 47 47 52 55 60 60 58 55 56 56 57 57 58 59 60 61 63 64 63 60 59 58 59 58 57 58 58 58 57 57 57 58 57 57 57
47 47 43 44 44 43 45 49 52 52 53 57 58 57 56 54 54 55 55 55 55 56 56 56 59 60 60 61 59 58 58 57 57 57 56 56 57 57 57 58 59 58 57 58
48 47 48 49 49 49 49 50 50 51 51 51 52 52 51 51 52 52 52 52 52 52 54 54 55 56 57 55 58 58 57 58 60 60 59 58 58 59 59 59 58 58 59 58
47 48 48 47 48 48 48 48 48 49 50 48 47 46 46 50 51 49 49 50 51 51 52 52 52 53 53 53 53 56 60 60 58 57 57 57 57 58 59 59 59 60 60 60
42 46 46 46 47 47 47 48 48 47 47 47 48 47 46 45 45 46 47 47 47 49 49 51 51 49 48 48 49 51 52 54 57 58 58 58 58 58 58 58 58 58 58 58
37 39 42 45 44 43 45 45 44 44 46 45 45 45 43 45 44 42 42 42 43 43 44 47 48 49 48 48 46 46 48 49 51 52 53 54 55 54 53 53 53 53 54 55
37 37 36 38 39 41 40 39 38 39 39 38 40 39 37 36 35 34 34 36 37 38 38 38 43 47 48 47 46 46 45 44 44 47 50 51 52 52 51 50 51 51 51 51
34 36 35 35 35 35 37 37 36 36 36 34 33 33 32 31 31 31 31 30 32 34 34 35 37 38 39 42 45 47 47 46 45 45 42 43 45 46 46 47 49 49 49 50
27 31 34 32 31 31 32 31 31 31 32 32 31 30 29 28 28 28 28 28 28 28 28 30 33 35 35 35 36 38 45 44 45 46 46 45 44 43 43 43 44 46 47 48
24 24 28 30 29 29 29 30 29 29 28 28 28 27 27 26 25 25 25 25 24 25 24 24 25 28 32 33 34 34 34 35 42 44 44 43 45 44 44 43 43 43 43 42
23 25 26 26 26 27 27 27 26 25 25 25 25 24 23 23 21 20 20 21 20 20 20 20 20 21 22 25 29 32 33 34 34 34 34 36 38 40 38 37 37 36 37 37

GFSNGP_sfc_30mbdewp_036.txt.gz
Dewpoint
26 26 22 16 16 16 16 18 17 14 15 22 25 26 26 28 30 33 38 41 45 47 54 55 58 61 62 62 64 64 66 69 70 71 72 72 73 73 74 74 73 74 74 73
29 29 27 25 17 17 16 15 16 16 15 24 25 28 28 31 32 35 35 36 38 42 43 49 57 62 61 62 63 64 65 66 69 71 72 73 73 73 74 74 74 74 74 74
27 29 28 25 24 18 16 16 16 16 19 24 26 26 28 28 28 29 30 30 31 34 36 44 48 60 63 63 64 65 65 67 68 70 71 72 73 73 73 74 74 74 74 74
27 28 26 28 28 26 23 18 17 18 20 24 30 30 30 30 30 30 30 31 34 31 34 41 44 46 57 64 65 65 67 67 69 70 71 72 73 73 74 74 74 74 74 75
25 26 29 28 27 26 24 24 22 20 21 27 28 29 30 30 30 31 33 36 36 33 34 41 45 48 54 57 66 67 66 68 69 71 71 72 73 74 74 74 74 75 75 75
25 23 22 26 26 26 25 23 30 26 27 27 27 25 43 50 50 51 52 54 55 52 51 38 47 38 59 58 62 66 67 67 69 70 71 71 73 74 75 75 75 74 75 75
21 23 24 28 27 25 24 39 44 44 44 37 36 48 50 50 50 52 54 55 55 54 53 53 53 53 54 55 59 63 67 68 69 70 70 72 72 74 75 75 75 75 74 75
19 20 22 29 27 32 40 40 38 39 40 43 43 45 48 49 52 53 55 56 54 54 53 54 58 56 55 58 58 62 64 69 70 72 71 71 73 74 75 75 75 74 74 74
18 19 27 26 25 25 26 28 34 34 34 36 35 36 38 45 53 57 58 58 56 54 51 53 56 58 56 65 68 65 68 70 71 72 73 72 74 74 74 75 74 74 74 73
19 20 22 23 24 24 25 26 28 30 31 30 34 35 36 39 49 57 62 60 64 64 63 62 58 63 67 67 66 69 70 71 72 72 73 73 72 74 73 73 74 74 73 73
24 26 27 25 24 25 26 27 27 27 28 29 31 33 41 44 52 56 59 65 63 65 67 68 70 71 71 72 71 69 70 72 73 72 73 73 73 71 73 73 72 72 73 72
27 29 32 33 30 29 28 28 30 30 30 30 33 37 43 46 54 57 62 65 64 64 65 66 66 67 68 68 71 71 70 70 69 69 70 71 72 73 71 70 67 63 63 67
33 35 35 36 37 35 34 33 33 33 33 33 35 40 43 45 57 60 62 64 64 65 65 66 66 65 66 68 68 69 68 69 68 68 67 70 70 71 71 62 59 60 60 58
38 38 37 37 36 36 36 34 34 33 31 32 35 37 39 42 58 59 61 63 64 65 64 64 64 65 67 68 67 66 63 62 64 65 65 67 68 67 67 68 68 67 61 59
43 42 39 40 38 37 37 36 37 33 35 36 36 38 39 43 57 60 62 64 64 64 64 64 64 64 63 64 64 65 63 62 63 63 63 63 63 62 62 63 62 61 61 60
40 42 43 41 40 37 37 37 38 36 37 38 39 42 43 57 59 62 62 63 62 62 63 64 64 64 64 64 62 61 61 60 60 60 61 59 59 60 61 61 60 60 59 58
43 39 39 39 38 37 37 37 37 37 37 39 45 50 53 58 60 60 60 60 60 60 61 62 63 64 64 61 61 61 58 59 59 58 59 59 59 58 58 59 59 59 58 57
47 47 44 43 40 39 38 39 39 43 46 46 51 54 56 57 57 57 57 56 57 57 57 58 60 61 60 60 59 58 59 58 58 56 57 58 59 59 59 58 58 58 57 59
45 45 46 47 47 48 49 48 49 48 48 48 51 51 51 52 53 52 52 51 51 51 52 53 55 56 56 61 60 58 58 58 59 59 59 59 59 59 58 58 59 59 60 60
46 45 45 46 46 46 47 48 48 48 48 46 45 45 45 46 48 48 47 47 49 49 50 50 51 50 52 54 59 58 59 59 59 59 58 58 58 58 58 58 58 58 57 58
44 46 45 44 44 44 45 46 46 46 46 47 46 45 45 46 45 45 45 45 46 47 49 50 49 49 49 49 51 53 55 55 57 56 56 56 55 54 54 53 53 54 54 55
38 39 44 44 44 43 44 44 43 45 46 46 46 46 44 44 44 44 45 45 46 46 47 48 50 49 49 47 46 46 48 50 50 53 54 54 53 52 52 53 52 52 52 53
37 36 38 40 40 40 41 41 41 41 40 41 42 41 42 42 41 39 39 44 43 41 43 44 47 49 49 49 48 47 47 47 47 49 50 51 50 49 49 49 50 50 50 49
30 35 35 36 39 37 35 33 34 36 35 34 33 34 34 33 32 31 30 29 32 30 29 32 37 40 42 44 44 43 44 46 47 47 46 45 45 46 47 47 47 46 47 47
29 31 31 30 31 34 34 34 34 34 32 32 32 30 28 30 30 29 29 28 27 28 27 26 29 33 35 36 36 40 42 42 43 44 44 44 43 43 44 44 44 45 44 44
27 26 27 29 27 26 26 27 27 25 27 27 26 25 25 23 23 23 24 23 23 22 23 22 23 26 29 31 33 34 34 36 40 41 41 40 38 38 37 37 37 36 36 37
25 25 25 25 25 25 24 23 22 21 22 24 22 22 22 21 21 20 21 21 21 21 21 21 21 22 23 24 25 27 30 31 32 34 34 36 37 37 37 36 35 33 32 31